Location: Les Jeannots
(43.2262°N, 5.5774°E)
Time: 02:05:20
(UTC+00:00)

H-2A R/B - Pass Details

Date: 05 July 2020
Orbit: 733 x 837 km, 98.2° (Epoch: 04 August)

Event Time Altitude Azimuth Distance (km) Brightness Sun altitude
Rises 19:47:22 0° 193° (SSW) 3,362 5.1 -4.8°
Reaches altitude 10° 19:49:59 10° 204° (SSW) 2,440 4.5 -5.2°
Maximum altitude 19:54:44 31° 265° (W) 1,441 4.0 -5.9°
Drops below altitude 10° 19:59:32 10° 326° (NNW) 2,455 6.1 -6.6°
Sets 20:02:11 0° 337° (NNW) 3,387 6.6 -6.9°
